Terug naar catalogus

STARLINK-38034

ActiefCommunicatieVLEO
NORAD 100026·PAYLOAD·🇺🇸 United States

Gelanceerd Jul 14, 2026 vanaf Vandenberg Space Force Base

Loading…

Volgende Passages (komende 24 uur)

TLE

VerouderendSource: Space-Track

Epoch: Sep 13, 2026, 06:46 UTC

1 A0026U 26160AB  26256.28241239  .00129055  00000-0  76293-3 0  9997
2 A0026  70.0015 215.4227 0003198 266.3030  93.7804 15.77583614 10859

Volg STARLINK-38034 in realtime met AllMySat

Download on the App Store